Preview of NWS' New Version of Forecast
This preview is not operational and should not be used for support decisions.

Regional Weather Roundup (RWR)

Issued by National Weather Service (NWS)

                            
000
ASCA42 TJSJ 181610
RWRPR 
PUERTO RICO/U.S. VIRGIN ISLANDS HOURLY WEATHER ROUNDUP
NATIONAL WEATHER SERVICE SAN JUAN PR
1200 PM AST SAT MAY 18 2019

PRZ001>002-007>008-010-181700-
PUERTO RICO
  
CITY           SKY/WX    TMP DP  RH WIND       PRES   REMARKS
SAN JUAN LMM   MOSUNNY   88  72  58 E17       29.98F HX  94           
AGUADILLA      MOSUNNY   86  73  66 NE14      29.99F HX  93           
CEIBA          SUNNY     90  72  55 E13G20    30.01F HX  96           
$$

VIZ001>002-181700-
U.S. VIRGIN ISLANDS
  
CITY           SKY/WX    TMP DP  RH WIND       PRES   REMARKS
CHARLOTTE AMA  SUNNY     84  72  65 SE15      30.00S                  
CHRISTIANSTED  MOSUNNY   84  73  70 SE13      30.00F HX  91           
$$

HOURLY WEATHER ROUNDUP FOR THE NEWS MEDIA
  
CITY           SKY/WX    TMP DP  RH WIND       PRES   REMARKS
ORLANDO        FAIR      83  60  45 E8        30.06S                  
NEW YORK       PTSUNNY   69  43  38 N6        30.00F                  
NEWARK         PTSUNNY   72  38  29 NW6       29.99F                  
CHICAGO        PTSUNNY   73  58  59 SW8       29.80R                  
HARTFORD       FAIR      65  42  43 VRB6      29.94R                  
BOSTON         FAIR      67  39  35 NW8G17    29.94S                  
DALLAS         CLOUDY    77  71  82 SE13G21   29.72S                  
PHILADELPHIA   PTSUNNY   71  46  40 SE5       30.03S                  
LOS ANGELES    PTSUNNY   62  52  69 CALM      29.98R                  
WASHINGTON DC  PTSUNNY   79  64  60 VRB3      30.02S